TimeEDT,TemperatureF,Dew PointF,Humidity,Sea Level PressureIn,VisibilityMPH,Wind Direction,Wind SpeedMPH,Gust SpeedMPH,PrecipitationIn,Events,Conditions,WindDirDegrees,DateUTC
12:15 AM,62.6,62.6,100,30.06,8.0,Calm,Calm,-,N/A,,Clear,0,2013-05-01 04:15:00
12:35 AM,60.8,60.8,100,30.05,8.0,Calm,Calm,-,N/A,,Clear,0,2013-05-01 04:35:00
12:55 AM,59.0,59.0,100,30.05,7.0,Calm,Calm,-,N/A,,Clear,0,2013-05-01 04:55:00
1:15 AM,60.8,60.8,100,30.04,8.0,Calm,Calm,-,N/A,,Clear,0,2013-05-01 05:15:00
1:35 AM,59.0,59.0,100,30.04,9.0,Calm,Calm,-,N/A,,Clear,0,2013-05-01 05:35:00
1:55 AM,59.0,59.0,100,30.04,7.0,Calm,Calm,-,N/A,,Clear,0,2013-05-01 05:55:00
2:15 AM,59.0,59.0,100,30.03,5.0,Calm,Calm,-,N/A,,Clear,0,2013-05-01 06:15:00
2:35 AM,59.0,59.0,100,30.02,5.0,Calm,Calm,-,N/A,,Clear,0,2013-05-01 06:35:00
2:55 AM,59.0,59.0,100,30.02,3.0,Calm,Calm,-,N/A,,Clear,0,2013-05-01 06:55:00
3:15 AM,59.0,59.0,100,30.01,8.0,Calm,Calm,-,N/A,,Partly Cloudy,0,2013-05-01 07:15:00
3:35 AM,64.4,64.4,100,30.01,0.5,NNE,6.9,-,N/A,Fog,Fog,30,2013-05-01 07:35:00
3:55 AM,64.4,64.4,100,30.01,0.2,NNE,5.8,-,N/A,Fog,Fog,30,2013-05-01 07:55:00
4:15 AM,64.4,64.4,100,30.00,1.8,NNE,8.1,-,N/A,,Overcast,20,2013-05-01 08:15:00
4:35 AM,64.4,64.4,100,30.00,2.5,NNE,9.2,-,N/A,,Overcast,30,2013-05-01 08:35:00
4:55 AM,64.4,64.4,100,29.99,3.0,NNE,5.8,-,N/A,,Mostly Cloudy,30,2013-05-01 08:55:00
5:15 AM,64.4,64.4,100,30.01,3.0,NE,3.5,-,N/A,,Overcast,40,2013-05-01 09:15:00
5:35 AM,66.2,66.2,100,30.01,4.0,NE,3.5,-,N/A,,Overcast,40,2013-05-01 09:35:00
5:55 AM,64.4,64.4,100,30.02,3.0,Calm,Calm,-,N/A,,Scattered Clouds,0,2013-05-01 09:55:00
6:15 AM,64.4,64.4,100,30.02,3.0,Calm,Calm,-,N/A,,Mostly Cloudy,0,2013-05-01 10:15:00
6:35 AM,64.4,64.4,100,30.03,4.0,ENE,3.5,-,N/A,,Overcast,70,2013-05-01 10:35:00
6:50 AM,66.2,66.2,100,30.03,5.0,ENE,5.8,-,N/A,,Overcast,70,2013-05-01 10:50:00
7:50 AM,66.2,66.2,100,30.04,5.0,NE,5.8,-,N/A,,Mostly Cloudy,50,2013-05-01 11:50:00
8:50 AM,69.8,66.2,88,30.06,7.0,NE,11.5,-,N/A,,Mostly Cloudy,50,2013-05-01 12:50:00
9:50 AM,73.4,66.2,78,30.05,10.0,ENE,16.1,-,N/A,,Mostly Cloudy,60,2013-05-01 13:50:00
10:50 AM,75.2,66.2,73,30.06,10.0,ENE,13.8,-,N/A,,Mostly Cloudy,60,2013-05-01 14:50:00
11:50 AM,75.2,66.2,73,30.08,10.0,North,11.5,-,N/A,,Mostly Cloudy,7,2013-05-01 15:50:00
12:50 PM,73.4,66.2,78,30.07,10.0,ENE,15.0,-,N/A,,Mostly Cloudy,60,2013-05-01 16:50:00
1:50 PM,73.4,66.2,78,30.06,10.0,NE,11.5,-,N/A,,Mostly Cloudy,50,2013-05-01 17:50:00
2:50 PM,73.4,66.2,78,30.06,7.0,NE,13.8,-,N/A,,Mostly Cloudy,50,2013-05-01 18:50:00
3:50 PM,71.6,64.4,78,30.05,7.0,ENE,13.8,-,N/A,,Overcast,60,2013-05-01 19:50:00
4:50 PM,69.8,64.4,83,30.05,7.0,NE,11.5,-,N/A,,Overcast,50,2013-05-01 20:50:00
5:50 PM,68.0,62.6,83,30.06,7.0,ENE,16.1,23.0,N/A,,Overcast,60,2013-05-01 21:50:00
6:50 PM,66.2,62.6,88,30.06,7.0,ENE,9.2,21.9,N/A,,Overcast,60,2013-05-01 22:50:00
7:50 PM,66.2,62.6,88,30.06,7.0,ENE,11.5,-,N/A,,Overcast,60,2013-05-01 23:50:00
8:15 PM,66.2,62.6,88,30.06,10.0,NNE,11.5,-,N/A,,Overcast,30,2013-05-02 00:15:00
8:35 PM,66.2,62.6,88,30.06,10.0,NNE,10.4,-,N/A,,Overcast,30,2013-05-02 00:35:00
8:55 PM,66.2,62.6,88,30.06,10.0,NNE,11.5,-,N/A,,Overcast,30,2013-05-02 00:55:00
9:15 PM,66.2,62.6,88,30.06,10.0,NNE,11.5,-,N/A,,Overcast,30,2013-05-02 01:15:00
9:35 PM,66.2,62.6,88,30.07,10.0,NNE,11.5,-,N/A,,Overcast,30,2013-05-02 01:35:00
9:55 PM,64.4,62.6,94,30.07,10.0,NNE,9.2,-,N/A,,Overcast,30,2013-05-02 01:55:00
10:35 PM,66.2,62.6,88,30.08,10.0,NNE,9.2,-,N/A,,Overcast,20,2013-05-02 02:35:00
10:55 PM,64.4,62.6,94,30.07,5.0,North,9.2,-,N/A,Rain,Light Rain,10,2013-05-02 02:55:00
11:15 PM,64.4,62.6,94,30.06,10.0,North,9.2,-,N/A,,Overcast,10,2013-05-02 03:15:00
11:35 PM,64.4,62.6,94,30.06,10.0,North,8.1,-,N/A,,Overcast,10,2013-05-02 03:35:00
11:55 PM,64.4,62.6,94,30.06,10.0,North,9.2,-,N/A,,Overcast,360,2013-05-02 03:55:00